Preview of NWS' New Version of Forecast
This preview is not operational and should not be used for support decisions.

Regional Weather Roundup (RWR)

Issued by National Weather Service (NWS)

                            
000
ASUS45 KBOI 150910
RWRID 

IDAHO REGIONAL WEATHER ROUNDUP
NATIONAL WEATHER SERVICE BOISE ID
300 AM MDT SUN SEP 15 2019

NOTE: "FAIR" INDICATES FEW OR NO CLOUDS BELOW 12000 FEET
WITH NO SIGNIFICANT WEATHER AND/OR OBSTRUCTIONS TO VISIBILITY

IDZ012-014-151000-
SOUTHWEST IDAHO

  
CITY           SKY/WX    TMP DP  RH WIND       PRES   REMARKS
BOISE          CLEAR     67  38  34 SE14      29.84R                  
CALDWELL       CLEAR     61  43  51 E6        29.82R                  
MOUNTAIN HOME  CLEAR     62  41  46 SE15      29.87F                  
$$

IDZ016-017-151000-
SOUTHCENTRAL IDAHO

  
CITY           SKY/WX    TMP DP  RH WIND       PRES   REMARKS
BURLEY         CLEAR     63  34  33 S8        29.96F                  
JEROME         CLEAR     59  39  47 NE10      29.96F                  
TWIN FALLS     CLEAR     65  33  30 S10       29.95F                  
$$

IDZ019>023-151000-
SOUTHEAST IDAHO

  
CITY           SKY/WX    TMP DP  RH WIND       PRES   REMARKS
IDAHO FALLS    CLEAR     48  41  76 N3        30.05F                  
POCATELLO      CLEAR     54  38  54 N7        30.02S                  
REXBURG        CLEAR     50  39  66 NE6       30.07F                  
$$

IDZ006-010-011-018-031-032-151000-
CENTRAL IDAHO MOUNTAINS

  
CITY           SKY/WX    TMP DP  RH WIND       PRES   REMARKS
MCCALL         CLEAR     47  38  71 NE5       29.95F                  
HAILEY         CLEAR     50  34  53 NW12G17   30.10S                  
STANLEY          N/A     40  30  67 CALM      30.12F                  
SALMON         CLEAR     47  38  71 CALM      29.96F                  
CHALLIS        CLEAR     51  34  52 CALM      30.03S                  
$$

IDZ002-004-006-007-026-151000-
NORTHERN IDAHO

  
CITY           SKY/WX    TMP DP  RH WIND       PRES   REMARKS
LEWISTON       CLEAR     60  45  57 S5        29.79F                  
LOWELL           N/A     55  53  93 CALM      29.86S                  
COEUR D'ALENE  PTCLDY    51  46  83 NE3       29.84F                  
MULLAN PASS    PTCLDY    51  37  58 CALM      29.96F                  
$$